Time,TemperatureF,DewpointF,PressureIn,WindDirection,WindDirectionDegrees,WindSpeedMPH,WindSpeedGustMPH,Humidity,HourlyPrecipIn,Conditions,Clouds,dailyrainin,SoftwareType,DateUTC
2013-05-28 00:06:00,54.0,52.0,30.20,SSW,213,0.0,0.0,94,0.00,,,0.00,weatherlink.com 1.10,2013-05-28 04:06:00,
2013-05-28 00:21:00,54.1,53.0,30.20,SSW,213,0.0,0.0,95,0.00,,,0.00,weatherlink.com 1.10,2013-05-28 04:21:00,
2013-05-28 00:36:00,54.0,53.0,30.20,SSW,213,0.0,0.0,95,0.00,,,0.00,weatherlink.com 1.10,2013-05-28 04:36:00,
2013-05-28 00:51:00,53.7,52.0,30.20,SSW,213,0.0,0.0,95,0.00,,,0.00,weatherlink.com 1.10,2013-05-28 04:51:00,
2013-05-28 01:06:00,53.6,52.0,30.20,SSW,213,0.0,0.0,94,0.00,,,0.00,weatherlink.com 1.10,2013-05-28 05:06:00,
2013-05-28 01:21:00,53.1,52.0,30.20,SSW,213,0.0,1.0,94,0.00,,,0.00,weatherlink.com 1.10,2013-05-28 05:21:00,
2013-05-28 01:36:00,52.6,51.0,30.19,SSW,213,0.0,0.0,95,0.00,,,0.00,weatherlink.com 1.10,2013-05-28 05:36:00,
2013-05-28 01:51:00,52.3,51.0,30.19,SSW,213,0.0,0.0,95,0.00,,,0.00,weatherlink.com 1.10,2013-05-28 05:51:00,
2013-05-28 02:06:00,52.4,51.0,30.18,SSW,213,0.0,0.0,96,0.00,,,0.00,weatherlink.com 1.10,2013-05-28 06:06:00,
2013-05-28 02:21:00,52.3,51.0,30.18,SSW,213,0.0,0.0,95,0.00,,,0.00,weatherlink.com 1.10,2013-05-28 06:21:00,
2013-05-28 02:36:00,52.0,51.0,30.18,SSW,213,0.0,1.0,95,0.00,,,0.00,weatherlink.com 1.10,2013-05-28 06:36:00,
2013-05-28 02:51:00,51.8,51.0,30.17,SSW,213,0.0,0.0,95,0.00,,,0.00,weatherlink.com 1.10,2013-05-28 06:51:00,
2013-05-28 03:06:00,51.7,51.0,30.16,SSW,213,0.0,0.0,96,0.00,,,0.00,weatherlink.com 1.10,2013-05-28 07:06:00,
2013-05-28 03:21:00,51.2,50.0,30.16,SSW,213,1.0,1.0,95,0.00,,,0.00,weatherlink.com 1.10,2013-05-28 07:21:00,
2013-05-28 03:36:00,50.9,50.0,30.15,SSW,213,0.0,1.0,95,0.00,,,0.00,weatherlink.com 1.10,2013-05-28 07:36:00,
2013-05-28 03:51:00,51.0,50.0,30.15,SSW,213,0.0,1.0,95,0.00,,,0.00,weatherlink.com 1.10,2013-05-28 07:51:00,
2013-05-28 04:06:00,51.2,50.0,30.15,SSW,213,0.0,0.0,95,0.00,,,0.00,weatherlink.com 1.10,2013-05-28 08:06:00,
2013-05-28 04:21:00,50.8,50.0,30.15,SSW,213,0.0,0.0,95,0.00,,,0.00,weatherlink.com 1.10,2013-05-28 08:21:00,
2013-05-28 04:36:00,50.9,50.0,30.15,SSW,212,0.0,0.0,95,0.00,,,0.00,weatherlink.com 1.10,2013-05-28 08:36:00,
2013-05-28 04:51:00,50.9,50.0,30.15,SSW,213,0.0,1.0,96,0.00,,,0.00,weatherlink.com 1.10,2013-05-28 08:51:00,
2013-05-28 05:06:00,50.5,49.0,30.15,SSW,213,0.0,0.0,95,0.00,,,0.00,weatherlink.com 1.10,2013-05-28 09:06:00,
2013-05-28 05:21:00,50.5,49.0,30.15,SSW,213,0.0,0.0,96,0.00,,,0.00,weatherlink.com 1.10,2013-05-28 09:21:00,
2013-05-28 05:36:00,50.8,50.0,30.15,SSW,213,0.0,0.0,96,0.00,,,0.00,weatherlink.com 1.10,2013-05-28 09:36:00,
2013-05-28 05:51:00,51.3,50.0,30.15,SSW,213,0.0,0.0,96,0.00,,,0.00,weatherlink.com 1.10,2013-05-28 09:51:00,
2013-05-28 06:06:00,51.6,50.0,30.15,SSW,213,0.0,2.0,95,0.00,,,0.00,weatherlink.com 1.10,2013-05-28 10:06:00,
2013-05-28 06:21:00,51.5,50.0,30.16,SSW,192,2.0,4.0,95,0.00,,,0.00,weatherlink.com 1.10,2013-05-28 10:21:00,
2013-05-28 06:36:00,52.7,51.0,30.16,SSW,193,2.0,5.0,93,0.00,,,0.00,weatherlink.com 1.10,2013-05-28 10:36:00,
2013-05-28 06:51:00,53.0,51.0,30.16,South,178,3.0,4.0,94,0.00,,,0.00,weatherlink.com 1.10,2013-05-28 10:51:00,
2013-05-28 07:06:00,53.2,52.0,30.16,South,178,2.0,4.0,94,0.00,,,0.00,weatherlink.com 1.10,2013-05-28 11:06:00,
2013-05-28 07:22:00,53.3,52.0,30.16,South,178,1.0,4.0,94,0.00,,,0.00,weatherlink.com 1.10,2013-05-28 11:22:00,
2013-05-28 07:37:00,54.3,53.0,30.16,South,181,2.0,5.0,94,0.00,,,0.00,weatherlink.com 1.10,2013-05-28 11:37:00,
2013-05-28 07:52:00,55.6,54.0,30.16,South,171,3.0,5.0,93,0.00,,,0.00,weatherlink.com 1.10,2013-05-28 11:52:00,
2013-05-28 08:07:00,57.1,54.0,30.16,SSW,194,7.0,7.0,89,0.00,,,0.00,weatherlink.com 1.10,2013-05-28 12:07:00,
2013-05-28 08:22:00,58.2,54.0,30.16,South,188,5.0,7.0,87,0.00,,,0.00,weatherlink.com 1.10,2013-05-28 12:22:00,
2013-05-28 08:37:00,59.6,54.0,30.16,SW,231,6.0,7.0,82,0.00,,,0.00,weatherlink.com 1.10,2013-05-28 12:37:00,
2013-05-28 08:52:00,60.8,55.0,30.16,SW,228,5.0,9.0,82,0.00,,,0.00,weatherlink.com 1.10,2013-05-28 12:52:00,
2013-05-28 09:07:00,61.7,56.0,30.16,SSW,207,4.0,7.0,80,0.00,,,0.00,weatherlink.com 1.10,2013-05-28 13:07:00,
2013-05-28 09:22:00,62.8,56.0,30.15,SSW,201,8.0,11.0,78,0.00,,,0.00,weatherlink.com 1.10,2013-05-28 13:22:00,
2013-05-28 09:37:00,63.9,57.0,30.15,SSW,199,4.0,9.0,77,0.00,,,0.00,weatherlink.com 1.10,2013-05-28 13:37:00,
2013-05-28 09:52:00,65.6,58.0,30.15,SSW,192,5.0,10.0,75,0.00,,,0.00,weatherlink.com 1.10,2013-05-28 13:52:00,
2013-05-28 10:07:00,65.8,57.0,30.15,SSW,201,7.0,10.0,73,0.00,,,0.00,weatherlink.com 1.10,2013-05-28 14:07:00,
2013-05-28 10:22:00,67.3,59.0,30.15,SSE,157,4.0,9.0,74,0.00,,,0.00,weatherlink.com 1.10,2013-05-28 14:22:00,
2013-05-28 10:37:00,68.1,59.0,30.15,SSW,195,7.0,9.0,72,0.00,,,0.00,weatherlink.com 1.10,2013-05-28 14:37:00,
2013-05-28 10:52:00,69.9,61.0,30.14,SSW,202,7.0,8.0,73,0.00,,,0.00,weatherlink.com 1.10,2013-05-28 14:52:00,
2013-05-28 11:07:00,71.4,61.0,30.14,SSW,194,5.0,8.0,69,0.00,,,0.00,weatherlink.com 1.10,2013-05-28 15:07:00,
2013-05-28 11:22:00,72.0,61.0,30.14,SSW,196,6.0,11.0,68,0.00,,,0.00,weatherlink.com 1.10,2013-05-28 15:22:00,
2013-05-28 11:37:00,73.0,62.0,30.13,South,170,4.0,13.0,69,0.00,,,0.00,weatherlink.com 1.10,2013-05-28 15:37:00,
2013-05-28 11:53:00,74.8,64.0,30.13,South,173,3.0,8.0,70,0.00,,,0.00,weatherlink.com 1.10,2013-05-28 15:53:00,
2013-05-28 12:08:00,75.3,63.0,30.13,SW,222,6.0,11.0,66,0.00,,,0.00,weatherlink.com 1.10,2013-05-28 16:08:00,
2013-05-28 12:23:00,76.5,63.0,30.12,SE,138,5.0,8.0,64,0.00,,,0.00,weatherlink.com 1.10,2013-05-28 16:23:00,
2013-05-28 12:38:00,77.3,65.0,30.11,ESE,123,5.0,10.0,65,0.00,,,0.00,weatherlink.com 1.10,2013-05-28 16:38:00,
2013-05-28 12:53:00,78.4,65.0,30.11,South,175,4.0,10.0,64,0.00,,,0.00,weatherlink.com 1.10,2013-05-28 16:53:00,
2013-05-28 13:08:00,79.1,67.0,30.11,SE,136,3.0,11.0,66,0.00,,,0.00,weatherlink.com 1.10,2013-05-28 17:08:00,
2013-05-28 13:23:00,80.2,66.0,30.11,SSW,206,4.0,7.0,63,0.00,,,0.00,weatherlink.com 1.10,2013-05-28 17:23:00,
2013-05-28 13:38:00,80.7,66.0,30.10,SSW,202,6.0,11.0,62,0.00,,,0.00,weatherlink.com 1.10,2013-05-28 17:38:00,
2013-05-28 13:53:00,81.2,67.0,30.10,South,186,0.0,10.0,63,0.00,,,0.00,weatherlink.com 1.10,2013-05-28 17:53:00,
2013-05-28 14:08:00,81.8,66.0,30.10,SSE,162,6.0,11.0,59,0.00,,,0.00,weatherlink.com 1.10,2013-05-28 18:08:00,
2013-05-28 14:23:00,82.5,67.0,30.09,SSE,161,8.0,12.0,60,0.00,,,0.00,weatherlink.com 1.10,2013-05-28 18:23:00,
2013-05-28 14:38:00,83.4,66.0,30.09,SE,128,5.0,13.0,56,0.00,,,0.00,weatherlink.com 1.10,2013-05-28 18:38:00,
2013-05-28 14:53:00,83.7,67.0,30.08,SE,134,4.0,9.0,57,0.00,,,0.00,weatherlink.com 1.10,2013-05-28 18:53:00,
2013-05-28 15:08:00,84.1,66.0,30.07,SSE,151,7.0,13.0,54,0.00,,,0.00,weatherlink.com 1.10,2013-05-28 19:08:00,
2013-05-28 15:23:00,84.0,66.0,30.06,SE,146,7.0,17.0,54,0.00,,,0.00,weatherlink.com 1.10,2013-05-28 19:23:00,
2013-05-28 15:38:00,84.1,67.0,30.06,SSE,157,6.0,14.0,56,0.00,,,0.00,weatherlink.com 1.10,2013-05-28 19:38:00,
2013-05-28 15:53:00,83.1,65.0,30.05,ESE,117,9.0,13.0,54,0.00,,,0.00,weatherlink.com 1.10,2013-05-28 19:53:00,
2013-05-28 16:08:00,83.0,65.0,30.05,SE,140,7.0,12.0,54,0.00,,,0.00,weatherlink.com 1.10,2013-05-28 20:08:00,
2013-05-28 16:23:00,82.1,65.0,30.06,South,178,3.0,13.0,56,0.00,,,0.00,weatherlink.com 1.10,2013-05-28 20:23:00,
2013-05-28 16:38:00,77.1,65.0,30.07,NNW,331,11.0,15.0,67,0.00,,,0.00,weatherlink.com 1.10,2013-05-28 20:38:00,
2013-05-28 16:53:00,74.9,66.0,30.07,North,355,4.0,10.0,74,0.00,,,0.00,weatherlink.com 1.10,2013-05-28 20:53:00,
2013-05-28 17:08:00,75.1,66.0,30.07,North,9,9.0,9.0,73,0.00,,,0.00,weatherlink.com 1.10,2013-05-28 21:08:00,
2013-05-28 17:23:00,74.8,66.0,30.07,NW,315,7.0,9.0,75,0.00,,,0.00,weatherlink.com 1.10,2013-05-28 21:23:00,
2013-05-28 17:38:00,73.6,66.0,30.07,NNW,338,4.0,9.0,77,0.00,,,0.00,weatherlink.com 1.10,2013-05-28 21:38:00,
2013-05-28 17:53:00,73.5,66.0,30.06,NW,323,4.0,6.0,78,0.00,,,0.00,weatherlink.com 1.10,2013-05-28 21:53:00,
2013-05-28 18:08:00,73.6,66.0,30.06,NNW,331,4.0,6.0,78,0.00,,,0.00,weatherlink.com 1.10,2013-05-28 22:08:00,
2013-05-28 18:23:00,74.2,67.0,30.06,NNW,333,5.0,5.0,79,0.00,,,0.00,weatherlink.com 1.10,2013-05-28 22:23:00,
2013-05-28 18:38:00,73.9,67.0,30.06,North,355,2.0,6.0,78,0.00,,,0.00,weatherlink.com 1.10,2013-05-28 22:38:00,
2013-05-28 18:53:00,73.7,67.0,30.07,North,360,1.0,2.0,79,0.00,,,0.00,weatherlink.com 1.10,2013-05-28 22:53:00,
2013-05-28 19:08:00,73.6,67.0,30.06,North,360,1.0,1.0,80,0.00,,,0.00,weatherlink.com 1.10,2013-05-28 23:08:00,
2013-05-28 19:23:00,73.4,67.0,30.06,North,360,0.0,1.0,81,0.00,,,0.00,weatherlink.com 1.10,2013-05-28 23:23:00,
2013-05-28 19:38:00,73.3,67.0,30.06,North,360,0.0,1.0,81,0.00,,,0.00,weatherlink.com 1.10,2013-05-28 23:38:00,
2013-05-28 19:53:00,73.0,67.0,30.06,North,360,0.0,0.0,82,0.00,,,0.00,weatherlink.com 1.10,2013-05-28 23:53:00,
2013-05-28 20:08:00,72.6,67.0,30.05,North,360,0.0,0.0,83,0.00,,,0.00,weatherlink.com 1.10,2013-05-29 00:08:00,
2013-05-28 20:23:00,71.3,67.0,30.06,North,360,0.0,2.0,85,0.00,,,0.00,weatherlink.com 1.10,2013-05-29 00:23:00,
2013-05-28 20:38:00,70.3,66.0,30.06,North,360,0.0,0.0,87,0.00,,,0.00,weatherlink.com 1.10,2013-05-29 00:38:00,
2013-05-28 20:53:00,69.8,66.0,30.06,North,360,0.0,0.0,88,0.00,,,0.00,weatherlink.com 1.10,2013-05-29 00:53:00,
2013-05-28 21:08:00,69.4,66.0,30.06,North,360,0.0,0.0,89,0.00,,,0.00,weatherlink.com 1.10,2013-05-29 01:08:00,
2013-05-28 21:23:00,68.8,66.0,30.06,North,360,0.0,0.0,90,0.00,,,0.00,weatherlink.com 1.10,2013-05-29 01:23:00,
2013-05-28 21:38:00,67.9,65.0,30.06,North,360,0.0,0.0,90,0.00,,,0.00,weatherlink.com 1.10,2013-05-29 01:38:00,
2013-05-28 21:53:00,67.4,65.0,30.07,North,360,0.0,0.0,91,0.00,,,0.00,weatherlink.com 1.10,2013-05-29 01:53:00,
2013-05-28 22:08:00,67.0,65.0,30.07,North,360,0.0,1.0,92,0.00,,,0.00,weatherlink.com 1.10,2013-05-29 02:08:00,
2013-05-28 22:23:00,67.1,65.0,30.07,North,360,2.0,3.0,91,0.00,,,0.00,weatherlink.com 1.10,2013-05-29 02:23:00,
2013-05-28 22:38:00,66.9,64.0,30.07,SE,132,1.0,3.0,90,0.00,,,0.00,weatherlink.com 1.10,2013-05-29 02:38:00,
2013-05-28 22:53:00,66.9,64.0,30.07,SSE,164,2.0,4.0,89,0.00,,,0.00,weatherlink.com 1.10,2013-05-29 02:53:00,
2013-05-28 23:08:00,68.8,65.0,30.07,SSW,207,1.0,4.0,87,0.00,,,0.00,weatherlink.com 1.10,2013-05-29 03:08:00,
2013-05-28 23:23:00,67.6,64.0,30.07,SSW,207,1.0,3.0,87,0.00,,,0.00,weatherlink.com 1.10,2013-05-29 03:23:00,
2013-05-28 23:38:00,66.6,63.0,30.08,SSW,207,1.0,2.0,89,0.00,,,0.00,weatherlink.com 1.10,2013-05-29 03:38:00,
2013-05-28 23:54:00,66.0,63.0,30.08,SSW,207,2.0,3.0,91,0.00,,,0.00,weatherlink.com 1.10,2013-05-29 03:54:00,